When you browse on this site, cookies collect data to enhance your experience and personalize the content and advertising you see.
Visit our Privacy Policy to learn more. By continuing to use the site, you agree to this use of cookies and data.
  • In Germany
  • List of Countries
  • For 7 days
  • Water Temperature
  • Weather Map
  • Weather Widgets
  • user-avatar
    Login

    Hourly Weather Malanje

    Today, 23 August, Friday

    Time Temperature Precipitation Wind Pressure Humidity
    00:00 +17°C° 0 mm 0 mps 666 mmHg 29%
    01:00 +18°C° 0 mm 1 mps 666 mmHg 30%
    02:00 +16°C° 0 mm 1 mps 666 mmHg 32%
    03:00 +16°C° 0 mm 1 mps 666 mmHg 33%
    04:00 +15°C° 0 mm 1 mps 665 mmHg 35%
    05:00 +15°C° 0 mm 1 mps 666 mmHg 35%
    06:00 +16°C° 0 mm 1 mps 667 mmHg 35%
    07:00 +18°C° 0 mm 1 mps 668 mmHg 36%
    08:00 +21°C° 0 mm 2 mps 669 mmHg 30%
    09:00 +25°C° 0 mm 3 mps 669 mmHg 25%
    10:00 +29°C° 0 mm 4 mps 670 mmHg 19%
    11:00 +31°C° 0 mm 3 mps 669 mmHg 17%
    12:00 +34°C° 0 mm 3 mps 669 mmHg 14%
    13:00 +35°C° 0 mm 3 mps 669 mmHg 15%
    14:00 +35°C° 0 mm 3 mps 668 mmHg 14%
    15:00 +34°C° 0 mm 2 mps 667 mmHg 14%
    16:00 +34°C° 0 mm 2 mps 666 mmHg 14%
    17:00 +30°C° 0 mm 2 mps 666 mmHg 17%
    18:00 +27°C° 0 mm 1 mps 666 mmHg 20%
    19:00 +24°C° 0 mm 1 mps 666 mmHg 23%
    20:00 +23°C° 0 mm 1 mps 666 mmHg 25%
    21:00 +22°C° 0 mm 1 mps 666 mmHg 27%
    22:00 +21°C° 0 mm 1 mps 666 mmHg 29%
    23:00 +20°C° 0 mm 1 mps 666 mmHg 30%

    Tomorrow, 24 August, Saturday

    Time Temperature Precipitation Wind Pressure Humidity
    00:00 +19°C° 0 mm 1 mps 666 mmHg 32%
    01:00 +18°C° 0 mm 1 mps 666 mmHg 34%
    02:00 +18°C° 0 mm 1 mps 666 mmHg 36%
    03:00 +16°C° 0 mm 1 mps 665 mmHg 38%
    04:00 +15°C° 0 mm 1 mps 665 mmHg 40%
    05:00 +15°C° 0 mm 1 mps 666 mmHg 39%
    06:00 +16°C° 0 mm 1 mps 667 mmHg 38%
    07:00 +18°C° 0 mm 1 mps 667 mmHg 38%
    08:00 +21°C° 0 mm 2 mps 668 mmHg 31%
    09:00 +25°C° 0 mm 3 mps 669 mmHg 24%
    10:00 +29°C° 0 mm 4 mps 669 mmHg 18%
    11:00 +31°C° 0 mm 3 mps 669 mmHg 15%
    12:00 +35°C° 0 mm 2 mps 669 mmHg 13%
    13:00 +37°C° 0 mm 2 mps 668 mmHg 11%
    14:00 +36°C° 0 mm 2 mps 667 mmHg 11%
    15:00 +35°C° 0 mm 1 mps 667 mmHg 11%
    16:00 +34°C° 0 mm 1 mps 666 mmHg 11%
    17:00 +31°C° 0 mm 1 mps 666 mmHg 13%
    18:00 +28°C° 0 mm 1 mps 665 mmHg 16%
    19:00 +25°C° 0 mm 1 mps 665 mmHg 18%
    20:00 +24°C° 0 mm 1 mps 665 mmHg 21%
    21:00 +22°C° 0 mm 1 mps 666 mmHg 24%
    22:00 +20°C° 0 mm 2 mps 666 mmHg 27%
    23:00 +19°C° 0 mm 2 mps 665 mmHg 43%

    Day after tomorrow, 25 August, Sunday

    Time Temperature Precipitation Wind Pressure Humidity
    00:00 +18°C° 0 mm 2 mps 665 mmHg 58%
    01:00 +16°C° 0 mm 2 mps 665 mmHg 74%
    02:00 +16°C° 0 mm 1 mps 665 mmHg 81%
    03:00 +15°C° 0 mm 1 mps 664 mmHg 87%
    04:00 +14°C° 0 mm 1 mps 664 mmHg 94%
    05:00 +14°C° 0 mm 1 mps 665 mmHg 91%
    06:00 +15°C° 0 mm 1 mps 665 mmHg 88%
    07:00 +16°C° 0 mm 1 mps 666 mmHg 85%
    08:00 +21°C° 0 mm 1 mps 667 mmHg 63%
    09:00 +25°C° 0 mm 2 mps 668 mmHg 41%
    10:00 +29°C° 0 mm 3 mps 668 mmHg 19%
    11:00 +32°C° 0 mm 2 mps 668 mmHg 16%
    12:00 +35°C° 0 mm 2 mps 668 mmHg 13%
    13:00 +37°C° 0 mm 2 mps 667 mmHg 10%
    14:00 +37°C° 0 mm 2 mps 667 mmHg 10%
    15:00 +35°C° 0 mm 1 mps 666 mmHg 10%
    16:00 +35°C° 0 mm 1 mps 665 mmHg 10%
    17:00 +32°C° 0 mm 1 mps 665 mmHg 13%
    18:00 +28°C° 0 mm 1 mps 665 mmHg 16%
    19:00 +25°C° 0 mm 1 mps 665 mmHg 19%
    20:00 +24°C° 0 mm 1 mps 665 mmHg 26%
    21:00 +23°C° 0 mm 2 mps 665 mmHg 33%
    22:00 +21°C° 0 mm 3 mps 665 mmHg 39%
    23:00 +20°C° 0 mm 3 mps 665 mmHg 51%

    26 August, Monday

    Time Temperature Precipitation Wind Pressure Humidity
    00:00 +18°C° 0 mm 3 mps 665 mmHg 63%
    01:00 +17°C° 0 mm 3 mps 665 mmHg 74%
    02:00 +16°C° 0 mm 2 mps 665 mmHg 81%
    03:00 +15°C° 0 mm 2 mps 664 mmHg 87%
    04:00 +14°C° 0 mm 2 mps 664 mmHg 94%
    05:00 +14°C° 0 mm 2 mps 665 mmHg 91%
    06:00 +15°C° 0 mm 2 mps 665 mmHg 89%
    07:00 +15°C° 0 mm 2 mps 666 mmHg 86%
    08:00 +19°C° 0 mm 2 mps 667 mmHg 68%
    09:00 +24°C° 0 mm 2 mps 668 mmHg 50%
    10:00 +29°C° 0 mm 2 mps 669 mmHg 31%
    11:00 +32°C° 0 mm 2 mps 669 mmHg 25%
    12:00 +36°C° 0 mm 1 mps 669 mmHg 19%
    13:00 +38°C° 0 mm 0 mps 669 mmHg 12%
    14:00 +40°C° 0 mm 1 mps 668 mmHg 13%
    15:00 +37°C° 0 mm 1 mps 667 mmHg 14%
    16:00 +36°C° 0 mm 1 mps 666 mmHg 14%
    17:00 +32°C° 0 mm 2 mps 666 mmHg 20%
    18:00 +29°C° 0 mm 2 mps 666 mmHg 27%
    19:00 +26°C° 0 mm 3 mps 666 mmHg 33%
    20:00 +24°C° 0 mm 3 mps 666 mmHg 38%
    21:00 +21°C° 0 mm 3 mps 666 mmHg 44%
    22:00 +20°C° 0 mm 3 mps 666 mmHg 50%
    23:00 +19°C° 0 mm 3 mps 666 mmHg 59%

    27 August, Tuesday

    Time Temperature Precipitation Wind Pressure Humidity
    00:00 +18°C° 0 mm 2 mps 666 mmHg 67%
    01:00 +17°C° 0 mm 2 mps 665 mmHg 75%
    02:00 +16°C° 0 mm 2 mps 665 mmHg 81%
    03:00 +15°C° 0 mm 2 mps 665 mmHg 87%
    04:00 +13°C° 0 mm 3 mps 665 mmHg 93%
    05:00 +15°C° 0 mm 2 mps 666 mmHg 90%
    06:00 +15°C° 0 mm 2 mps 666 mmHg 88%
    07:00 +15°C° 0 mm 2 mps 667 mmHg 86%
    08:00 +19°C° 0 mm 2 mps 667 mmHg 67%
    09:00 +25°C° 0 mm 2 mps 668 mmHg 48%
    10:00 +29°C° 0 mm 2 mps 669 mmHg 29%
    11:00 +32°C° 0 mm 2 mps 669 mmHg 24%
    12:00 +35°C° 0 mm 1 mps 669 mmHg 20%
    13:00 +40°C° 0 mm 1 mps 668 mmHg 15%
    14:00 +39°C° 0 mm 1 mps 668 mmHg 15%
    15:00 +37°C° 0 mm 1 mps 667 mmHg 15%
    16:00 +34°C° 0 mm 0 mps 666 mmHg 15%
    17:00 +34°C° 0 mm 1 mps 666 mmHg 19%
    18:00 +31°C° 0 mm 2 mps 666 mmHg 23%
    19:00 +28°C° 0 mm 3 mps 666 mmHg 27%
    20:00 +26°C° 0 mm 2 mps 666 mmHg 33%
    21:00 +23°C° 0 mm 2 mps 666 mmHg 40%
    22:00 +20°C° 0 mm 2 mps 665 mmHg 46%
    23:00 +19°C° 0 mm 2 mps 665 mmHg 53%

    28 August, Wednesday

    Time Temperature Precipitation Wind Pressure Humidity
    00:00 +18°C° 0 mm 3 mps 665 mmHg 61%
    01:00 +17°C° 0 mm 3 mps 665 mmHg 68%
    02:00 +16°C° 0 mm 2 mps 665 mmHg 71%
    03:00 +16°C° 0 mm 2 mps 665 mmHg 73%
    04:00 +15°C° 0 mm 1 mps 664 mmHg 76%
    05:00 +15°C° 0 mm 1 mps 665 mmHg 71%
    06:00 +16°C° 0 mm 2 mps 665 mmHg 67%
    07:00 +16°C° 0 mm 2 mps 666 mmHg 62%
    08:00 +21°C° 0 mm 2 mps 667 mmHg 48%
    09:00 +27°C° 0 mm 2 mps 668 mmHg 34%
    10:00 +32°C° 0 mm 2 mps 669 mmHg 20%
    11:00 +35°C° 0 mm 1 mps 668 mmHg 17%
    12:00 +40°C° 0 mm 1 mps 668 mmHg 15%
    13:00 +40°C° 0 mm 0 mps 668 mmHg 12%
    14:00 +37°C° 0 mm 0 mps 667 mmHg 14%
    15:00 +37°C° 0 mm 1 mps 666 mmHg 15%
    16:00 +35°C° 0 mm 1 mps 665 mmHg 17%
    17:00 +33°C° 0 mm 1 mps 665 mmHg 20%
    18:00 +31°C° 0 mm 2 mps 665 mmHg 22%
    19:00 +29°C° 0 mm 2 mps 665 mmHg 25%
    20:00 +27°C° 0 mm 2 mps 665 mmHg 31%
    21:00 +25°C° 0 mm 2 mps 665 mmHg 37%
    22:00 +23°C° 0 mm 2 mps 665 mmHg 42%
    23:00 +20°C° 0 mm 2 mps 665 mmHg 53%
    Show more